Location: Unspecified
(0.0000°N, 0.0000°E)
Time: 04:17:15
(UTC+00:00)

N. Korean satellite - Pass Details

Date: 11 November 2019
Orbit: 456 x 506 km, 97.2° (Epoch: 10 November)

Event Time Altitude Azimuth Distance (km) Brightness Sun altitude
Rises 05:02:00 0° 28° (NNE) 2,580 10.4 -10.0°
Reaches altitude 10° 05:04:15 10° 39° (NE) 1,694 9.6 -9.5°
Maximum altitude 05:07:28 29° 101° (E) 924 9.0 -8.7°
Drops below altitude 10° 05:10:39 10° 162° (SSE) 1,680 9.8 -8.0°
Sets 05:12:53 0° 174° (S) 2,555 10.6 -7.4°
